www.pogodaiklimat.ru

Погода и климат >> Архив погоды >> Франция >> Аббевилль


ПОГОДА в Аббевилле

  • Прогноз погоды в Аббевилле
  • Монитор погоды в Аббевилле

АРХИВ ПОГОДЫ в Аббевилле

Время (UTC), дата Ветер
(напр.,м/с)
 
Видим.   Явления Облачность Т
(С)
Тd
(С)
f
(%)
Тe
(С)
Тes
(С)
Комфортность P
(гПа)
Po
(гПа)
Тmin
(С)
Tmax
(С)
R
(мм)
R24
(мм)
S
(см)
01 10.06 С 1 9000 м н/о +12.0 +10.7 92 +13 +13 1016.5 1007.8
02 10.06 СЗ 1 6000 м н/о +11.8 +10.5 92 +12 +12 1015.8 1007.1
03 10.06 З 2
{4}
6000 м н/о +11.6 +10.7 94 +10 +10 1015.7 1007.0 0
04 10.06 СЗ 1 6000 м н/о +11.6 +10.8 95 +11 +11 1015.0 1006.3
05 10.06 С 1 6000 м слаб. дождь н/о +11.6 +10.8 95 +11 +11 1014.8 1006.1 0.2
06 10.06 С 3
{5}
7000 м н/о +11.8 +11.0 95 +10 +10 1014.2 1005.5 +11.6 +14.5 0.2 0
07 10.06 В 1 8000 м н/о +12.6 +11.7 94 +12 +12 1013.9 1005.3
08 10.06 СВ 1 9000 м н/о +13.8 +12.4 91 +15 +15 1013.5 1004.9
09 10.06 В 1
{2}
18 км н/о +15.4 +12.0 80 +17 +17 1012.8 1004.3 0
10 10.06 ЮВ 1 18 км н/о +16.1 +11.5 74 +17 +17 1012.8 1004.3
11 10.06 Ю 1 18 км н/о +17.1 +12.4 74 +19 +19 1012.4 1003.9
12 10.06 ЮВ 2
{4}
15 км н/о +17.0 +11.0 68 +17 +17 1011.6 1003.1 0.2 0
13 10.06 Ю 2 4200 м сильн. дождь н/о +16.1 +9.7 66 +16 +16 1011.6 1003.1 2
14 10.06 З 2 16 км н/о +13.5 +10.3 81 +13 +13 1011.5 1002.9 3
15 10.06 З 7
{11}
19 км н/о +12.7 +11.4 92 +10 +10 1011.7 1003.1 8 0
16 10.06 З 3 20 км н/о +12.8 +10.9 88 +11 +11 1012.0 1003.4
17 10.06 З 3 20 км н/о +13.0 +10.2 83 +12 +12 1011.8 1003.2
18 10.06 З 4
{9}
20 км н/о +12.7 +9.7 82 +11 +11 1011.9 1003.3 +11.8 +18.6 0
19 10.06 ЮЗ 2 19 км н/о +11.6 +9.8 89 +11 +11 1012.3 1003.6 0.0
20 10.06 ЮЗ 1 20 км н/о +11.4 +9.5 88 +11 +11 1012.3 1003.6 0.0
21 10.06 ЮЗ 2
{5}
20 км н/о +10.6 +9.0 90 +9 +9 1012.2 1003.5 0.0 0
22 10.06 ЮЗ 1 20 км н/о +10.0 +8.8 92 +9 +9 1012.0 1003.3
23 10.06 Ю 1 20 км н/о +9.7 +8.3 91 +10 +10 1012.0 1003.3
00 11.06 ЮВ 2
{3}
19 км н/о +9.0 +7.6 91 +7 +7 1012.0 1003.3 0
01 11.06 Ю 1 16 км н/о +8.6 +7.4 92 +8 +8 1011.6 1002.9
02 11.06 ЮВ 2 12 км н/о +8.2 +7.1 93 +7 +7 1011.9 1003.1
03 11.06 Ю 2
{4}
9000 м н/о +8.0 +7.1 94 +6 +6 1011.6 1002.8 0
04 11.06 Ю 1 8000 м н/о +7.7 +6.8 94 +7 +7 1011.7 1002.9
05 11.06 В 1 8000 м н/о +8.3 +7.5 95 +7 +7 1012.0 1003.2 0.2
06 11.06 ЮВ 2
{4}
15 км н/о +9.8 +8.7 93 +8 +8 1011.7 1003.0 +7.6 +12.7 0.2 0
07 11.06 ЮВ 2 20 км н/о +12.2 +9.8 85 +12 +12 1011.7 1003.1
08 11.06 ЮВ 2 20 км н/о +13.9 +9.5 75 +14 +14 1011.9 1003.3
09 11.06 Ю 1 19 км н/о +15.4 +9.5 68 +16 +16 1011.9 1003.4
10 11.06 Ю 2 20 км н/о +15.9 +7.9 59 +16 +16 1012.0 1003.5
11 11.06 Ю 2 20 км н/о +16.7 +7.9 56 +17 +17 1011.8 1003.3
12 11.06 Ю 2
{8}
20 км н/о +18.0 +7.1 49 +19 +19 1011.7 1003.2 0
13 11.06 Ю 2 12 км н/о +19.2 +9.4 53 +21 +21 комфорт 1011.6 1003.2
14 11.06 ЮВ 1 20 км н/о +18.1 +6.3 46 +19 +19 1011.5 1003.0
15 11.06 З 2
{5}
20 км н/о +18.0 +9.1 56 +19 +19 1011.3 1002.8 0
16 11.06 СЗ 2 20 км н/о +17.6 +10.9 65 +18 +18 1011.3 1002.8
17 11.06 С 3 20 км н/о +17.7 +10.3 62 +18 +18 1010.8 1002.3
18 11.06 С 4
{7}
20 км н/о +16.6 +10.9 69 +16 +16 1011.0 1002.5 +9.9 +20.0 0
19 11.06 СВ 2 20 км н/о +15.5 +10.9 74 +15 +15 1011.3 1002.8
20 11.06 ЮЗ 1 20 км н/о +13.7 +10.7 82 +14 +14 1011.7 1003.1 0.0
21 11.06 З 2
{3}
20 км н/о +12.9 +11.0 88 +12 +12 1011.8 1003.2 0.0 0
22 11.06 СЗ 1 20 км н/о +12.5 +11.1 91 +13 +13 1011.2 1002.6
23 11.06 Ю 1 20 км н/о +12.1 +10.8 92 +13 +13 1011.0 1002.4
00 12.06 Ю 2
{4}
19 км н/о +12.2 +11.1 93 +11 +11 1010.9 1002.3 0.4 0
01 12.06 ЮЗ 1 20 км дождь н/о +12.2 +11.3 94 +13 +13 1010.4 1001.8 0.0
02 12.06 штиль 0 10 км слаб. дождь н/о +11.9 +11.0 94 +11 +11 1009.9 1001.3 0.6
03 12.06 С 2
{2}
9000 м слаб. дождь н/о +11.9 +11.0 94 +11 +11 1009.4 1000.8 2 0
04 12.06 СВ 1 9000 м слаб. дождь н/о +11.8 +11.0 95 +12 +12 1009.5 1000.9 0.2
05 12.06 ЮВ 1 7000 м слаб. морось н/о +11.8 +11.0 95 +12 +12 1009.6 1001.0 0.2
06 12.06 СВ 1
{2}
20 км н/о +12.2 +11.4 95 +13 +13 1009.5 1000.9 +11.7 +16.6 0.6 0
07 12.06 ЮВ 1 20 км н/о +14.0 +11.0 82 +15 +15 1009.2 1000.6
08 12.06 ЮВ 1 20 км н/о +14.2 +11.0 81 +15 +15 1009.4 1000.9
09 12.06 ЮВ 2
{4}
20 км н/о +14.3 +11.1 81 +14 +14 1009.2 1000.7 0
10 12.06 Ю 2 20 км н/о +14.4 +10.8 79 +14 +14 1009.3 1000.8
11 12.06 Ю 2 20 км н/о +15.0 +10.4 74 +15 +15 1009.3 1000.8
12 12.06 ЮВ 2
{5}
20 км н/о +16.4 +10.7 69 +17 +17 1009.2 1000.7 0
13 12.06 ЮВ 1 19 км н/о +17.9 +9.5 58 +20 +20 1008.6 1000.2
14 12.06 ЮВ 2 20 км н/о +17.7 +8.5 55 +18 +18 1008.3 999.9
15 12.06 Ю 4
{8}
20 км н/о +18.1 +9.2 56 +18 +18 1008.1 999.7 0
16 12.06 Ю 2 20 км н/о +17.9 +8.7 55 +19 +19 1007.9 999.5
17 12.06 Ю 1 20 км н/о +16.1 +9.5 65 +17 +17 1008.0 999.5
18 12.06 Ю 1
{5}
20 км н/о +16.3 +9.7 65 +17 +17 1007.9 999.4 +12.3 +18.3 0
19 12.06 ЮВ 2 20 км н/о +14.5 +9.5 72 +14 +14 1008.1 999.6
20 12.06 Ю 1 20 км н/о +14.1 +9.7 75 +14 +14 1008.2 999.7
21 12.06 Ю 2
{4}
20 км н/о +13.3 +9.9 80 +13 +13 1008.8 1000.2 0
22 12.06 Ю 1 20 км н/о +13.1 +9.9 81 +13 +13 1008.6 1000.0
23 12.06 Ю 2 20 км н/о +12.1 +9.5 84 +11 +11 1008.5 999.9
00 13.06 Ю 2
{5}
20 км н/о +12.0 +9.7 86 +11 +11 1008.6 1000.0 0
01 13.06 Ю 1 20 км н/о +11.7 +9.8 88 +11 +11 1008.5 999.9
02 13.06 Ю 1 20 км н/о +11.8 +9.9 88 +12 +12 1008.6 1000.0
03 13.06 Ю 2
{6}
20 км н/о +11.7 +9.6 87 +11 +11 1008.7 1000.1 0
04 13.06 Ю 1 20 км н/о +11.8 +9.7 87 +12 +12 1009.0 1000.4
05 13.06 Ю 1 20 км н/о +12.0 +9.7 86 +12 +12 1009.2 1000.6
06 13.06 Ю 3
{8}
20 км н/о +12.2 +9.4 83 +11 +11 1009.6 1001.0 +11.7 +16.4 0
07 13.06 Ю 1 20 км н/о +12.8 +9.6 81 +13 +13 1009.7 1001.1
08 13.06 Ю 3 20 км н/о +13.7 +9.5 76 +13 +13 1009.7 1001.1
09 13.06 Ю 5
{10}
20 км н/о +13.7 +9.7 77 +12 +12 1010.0 1001.4 0
10 13.06 Ю 3 20 км н/о +14.9 +9.9 72 +14 +14 1009.8 1001.3
11 13.06 Ю 2 20 км н/о +15.0 +10.2 73 +15 +15 1009.7 1001.2 0.2
12 13.06 Ю 5
{11}
20 км н/о +15.6 +10.6 72 +15 +15 1009.6 1001.1 0.4 0
13 13.06 Ю 2 17 км слаб. дождь н/о +14.4 +11.2 81 +14 +14 1009.5 1001.0 0.4
14 13.06 З 2 19 км слаб. дождь н/о +13.7 +11.2 85 +13 +13 1010.0 1001.4 0.2
15 13.06 ЮЗ 3
{9}
20 км н/о +16.2 +11.8 75 +16 +16 1009.7 1001.2 0.8 0
16 13.06 Ю 2 20 км н/о +15.1 +11.3 78 +15 +15 1009.9 1001.4 0.0
17 13.06 ЮЗ 2 18 км н/о +16.1 +10.6 70 +16 +16 1010.0 1001.5
18 13.06 Ю 2
{7}
20 км н/о +14.0 +11.5 85 +13 +13 1010.6 1002.0 +12.3 +17.5 3 0
19 13.06 ЮЗ 1 20 км дождь н/о +13.7 +11.9 89 +14 +14 1010.9 1002.3 0.3
20 13.06 ЮЗ 1 20 км н/о +13.5 +11.5 88 +14 +14 1011.4 1002.8 0.0
21 13.06 ЮВ 1
{2}
20 км н/о +12.7 +11.3 91 +13 +13 1011.9 1003.3 0.3 0
22 13.06 ЮВ 1 20 км н/о +11.9 +10.6 92 +12 +12 1012.1 1003.5
23 13.06 ЮВ 1 20 км н/о +11.3 +10.0 92 +11 +11 1012.2 1003.5
00 14.06 ЮВ 2
{3}
20 км н/о +10.9 +9.7 92 +10 +10 1012.1 1003.4 0
01 14.06 ЮВ 1 20 км н/о +10.1 +9.0 93 +10 +10 1011.7 1003.0
02 14.06 Ю 1 20 км н/о +10.0 +8.9 93 +9 +9 1012.0 1003.3 0.2
03 14.06 Ю 2
{3}
20 км н/о +10.4 +9.3 93 +9 +9 1011.9 1003.2 0.2 0
04 14.06 Ю 1 20 км н/о +10.9 +9.8 93 +10 +10 1012.2 1003.5
05 14.06 Ю 1 20 км н/о +11.0 +9.6 91 +11 +11 1012.5 1003.8
06 14.06 Ю 2
{4}
20 км н/о +11.7 +10.1 90 +11 +11 1012.8 1004.1 +9.7 +14.0 0.5 0
07 14.06 Ю 1 20 км н/о +12.8 +10.5 86 +14 +14 1012.9 1004.3
08 14.06 ЮЗ 2 20 км н/о +15.7 +11.1 74 +16 +16 1013.1 1004.6
09 14.06 ЮЗ 2
{6}
20 км н/о +17.5 +10.4 63 +18 +18 1013.5 1005.0 0
10 14.06 ЮЗ 2 18 км н/о +18.8 +10.1 57 +20 +20 1013.6 1005.1
11 14.06 Ю 2 4800 м дымка н/о +20.1 +9.3 50 +22 +22 комфорт 1013.6 1005.2
12 14.06 ЮЗ 3
{8}
6000 м н/о +21.0 +10.2 50 +23 +23 комфорт 1013.6 1005.2 0
13 14.06 ЮЗ 3-4
{4}
19 км н/о +21.2 +8.8 45 +22 +22 комфорт 1013.3 1004.9
14 14.06 З 1 20 км н/о +20.0 +11.2 57 +23 +23 комфорт 1012.8 1004.4
15 14.06 СЗ 4
{7}
20 км н/о +20.0 +12.0 60 +22 +22 комфорт 1012.4 1004.0 0
16 14.06 СЗ 2 20 км н/о +19.6 +11.9 61 +22 +22 комфорт 1012.2 1003.8
17 14.06 СЗ 3 20 км н/о +18.7 +10.8 60 +20 +20 1012.1 1003.7
18 14.06 СЗ 4
{7}
20 км н/о +18.9 +11.2 61 +20 +20 1012.2 1003.8 +11.7 +22.6 0
19 14.06 СЗ 2 20 км н/о +17.5 +11.5 68 +18 +18 1012.5 1004.0
20 14.06 С 1 20 км н/о +16.1 +11.5 74 +17 +17 1012.6 1004.1
21 14.06 СЗ 2
{3}
20 км н/о +14.8 +11.6 81 +14 +14 1012.9 1004.3 0
22 14.06 С 1 20 км н/о +13.7 +11.2 85 +14 +14 1012.6 1004.0
23 14.06 С 1 20 км н/о +13.0 +10.9 87 +14 +14 1012.4 1003.8
00 15.06 СЗ 2
{2}
20 км н/о +12.9 +11.1 89 +12 +12 1012.3 1003.7 0
01 15.06 С 1 20 км н/о +12.9 +11.3 90 +14 +14 1012.2 1003.6
02 15.06 З 1 20 км н/о +13.2 +11.4 89 +14 +14 1012.2 1003.6
03 15.06 СЗ 2
{3}
20 км н/о +12.8 +10.9 88 +12 +12 1012.4 1003.8 0
04 15.06 СЗ 1 20 км н/о +11.9 +10.5 91 +12 +12 1012.9 1004.3
05 15.06 СЗ 1 20 км н/о +11.7 +10.6 93 +12 +12 1013.1 1004.4
06 15.06 штиль 0
{2}
20 км н/о +14.2 +12.6 90 +14 +14 1013.2 1004.6 +11.2 +18.9 0
07 15.06 СЗ 1 20 км н/о +16.3 +11.9 75 +18 +18 1013.7 1005.2
08 15.06 З 1 20 км н/о +17.6 +11.4 67 +19 +19 1014.2 1005.7
09 15.06 З 3
{6}
20 км н/о +18.3 +11.1 63 +19 +19 1014.6 1006.1 0
10 15.06 З 2 20 км н/о +18.5 +11.1 62 +19 +19 1015.0 1006.5
11 15.06 З 3 20 км н/о +17.9 +10.8 63 +18 +18 1015.4 1006.9
12 15.06 СЗ 4
{7}
20 км н/о +17.8 +11.8 68 +18 +18 1015.8 1007.3 0
13 15.06 З 2 20 км н/о +17.8 +12.7 72 +18 +18 1015.8 1007.3
14 15.06 З 2 20 км н/о +19.9 +12.6 63 +22 +22 комфорт 1015.7 1007.3
15 15.06 ЮЗ 2
{6}
20 км н/о +19.7 +10.7 56 +22 +22 комфорт 1015.6 1007.2 0
16 15.06 З 3 20 км н/о +18.2 +10.8 62 +19 +19 1015.9 1007.4
17 15.06 ЮЗ 2 20 км н/о +20.0 +10.4 54 +22 +22 комфорт 1015.7 1007.3
18 15.06 ЮЗ 4
{9}
20 км н/о +19.8 +9.4 51 +21 +21 комфорт 1015.7 1007.3 +14.2 +20.5 0
19 15.06 Ю 1 20 км н/о +18.0 +9.9 59 +20 +20 1016.1 1007.6
20 15.06 Ю 1 18 км н/о +17.3 +9.7 61 +18 +18 1016.3 1007.8
21 15.06 Ю 1
{10}
20 км н/о +15.1 +11.9 81 +16 +16 1017.0 1008.4 0.0 0
22 15.06 Ю 1 20 км н/о +14.2 +11.2 82 +15 +15 1017.1 1008.5
23 15.06 Ю 1 20 км н/о +13.5 +10.7 83 +14 +14 1017.2 1008.6
00 16.06 Ю 2
{5}
20 км н/о +14.0 +10.8 81 +14 +14 1017.5 1008.9 0
01 16.06 Ю 1 20 км н/о +14.0 +11.0 82 +14 +14 1017.5 1008.9
02 16.06 Ю 1 20 км н/о +14.4 +11.5 83 +15 +15 1017.7 1009.1
03 16.06 ЮЗ 2
{5}
18 км н/о +14.0 +11.9 87 +13 +13 1018.1 1009.5 0.0 0
04 16.06 Ю 1 6000 м дождь н/о +13.8 +12.4 91 +15 +15 1018.4 1009.8 0.0
05 16.06 З 2 7000 м н/о +13.4 +12.3 93 +13 +13 1018.8 1010.2 0.2
06 16.06 ЮЗ 2
{6}
20 км н/о +14.1 +13.1 94 +14 +14 1019.4 1010.8 +13.1 +19.8 0.4 0
07 16.06 Ю 1 20 км н/о +16.3 +13.6 84 +17 +17 1019.6 1011.0
08 16.06 Ю 2 20 км н/о +17.3 +12.6 74 +18 +18 1019.7 1011.2
09 16.06 ЮЗ 3
{7}
20 км н/о +17.9 +12.1 69 +18 +18 1020.0 1011.5 0
10 16.06 ЮЗ 2 20 км н/о +18.3 +12.5 69 +19 +19 1020.2 1011.7
11 16.06 ЮЗ 2 20 км н/о +19.8 +11.8 60 +22 +22 комфорт 1020.0 1011.5
12 16.06 ЮЗ 4
{8}
20 км н/о +19.2 +12.5 65 +20 +20 1020.2 1011.7 0
13 16.06 З 2 18 км слаб. дождь н/о +17.4 +14.1 81 +18 +18 1020.5 1012.0 0.6
14 16.06 З 2 20 км н/о +19.6 +14.2 71 +22 +22 комфорт 1020.6 1012.1 0.0
15 16.06 З 3
{6}
15 км слаб. дождь н/о +18.0 +13.1 73 +18 +18 1020.8 1012.3 0.6 0
16 16.06 СЗ 2 20 км н/о +18.6 +13.2 71 +20 +20 1020.7 1012.2 0.2
17 16.06 СЗ 2 20 км н/о +18.5 +12.0 66 +20 +20 1020.7 1012.2
18 16.06 СЗ 2
{5}
20 км н/о +17.8 +12.3 70 +18 +18 1020.8 1012.3 +14.1 +21.2 0.2 0
19 16.06 СЗ 1 20 км н/о +17.5 +12.0 70 +19 +19 1020.7 1012.2
20 16.06 СВ 1 20 км н/о +15.9 +11.7 76 +17 +17 1020.7 1012.1
21 16.06 СВ 1
{2}
20 км н/о +14.5 +11.6 83 +15 +15 1020.8 1012.2 0
22 16.06 В 1 20 км н/о +13.8 +11.8 88 +14 +14 1020.8 1012.1
23 16.06 В 1 20 км н/о +13.1 +11.7 91 +13 +13 1020.7 1012.0
00 17.06 ЮВ 2
{3}
20 км н/о +13.0 +11.7 92 +12 +12 1020.6 1011.9 0

 

Местоположение метеостанции Аббевилль (Франция): широта 50.13 долгота 1.83 высота над уровнем моря 77 м.

В архиве по умолчанию представлена погода в Аббевилле за последнюю неделю. Архивные данные за месяц целиком и за предыдущие месяцы, начиная с января 2011 года, Вы можете получить, выбрав интересующий диапазон дат из раскрывающегося списка и нажав кнопку "Ввод!".


*Определитесь, кто Вы:
робот инопланетянин человек

Внимание! Время в таблицах - всемирное. Для получения местного времени необходимо прибавить поправку, которая равна 1 ч.

Смотрите также архив погоды в соседних городах и на ближайших метеорологических станциях:

Погода в Ле-Туке-Пари-Плаже (Франция) (46 км)
Погода в Дьеппе (Франция) (57 км)
Погода в Меоте (Франция) (65 км)
Погода в Булонь-сюр-Мере (Франция) (69 км)
Погода в Бове (Франция) (76 км)
Погода в Руанском (Франция) (96 км)
Погода в Лилле (Франция) (103 км)
Погода в Сен-Кантене (Франция) (104 км)
Погода в Дюнкерке (Франция) (108 км)
Погода в Крее (Франция) (110 км)

Пояснения к столбцам:

Ветер - указаны скорость ветра в м/с - средняя за 10 мин, порывы в срок и между сроками (в фигурных скобках) и направление, откуда дует ветер: С - северный, СВ - северо-восточный, В - восточный, ЮВ - юго-восточный, Ю - южный, ЮЗ - юго-западный, З - западный, СЗ - северо-западный.
Видимость - горизонтальная дальность видимости в метрах или километрах. При видимости от 1 до 10 км при отсутствии осадков обычно наблюдается дымка, при ухудшении видимости до 1 км и менее - туман. В сухую погоду видимость может ухудшаться дымом, пылью или мглою.
Явления - указаны атмосферные явления, наблюдавшиеся в срок или в последний час перед сроком; фигурными скобками обозначены явления, наблюдавшиеся между сроками (за 1-3 часа до срока); квадратными скобками обозначены град или гололедные отложения с указанием их диаметра в мм.
Облачность - указаны через наклонную черту общая и нижняя облачность в баллах и высота нижней границы облаков в метрах; квадратными скобками обозначены формы облаков: Ci - перистые, Cs - перисто-слоистые, Cc - перисто-кучевые, Ac - высококучевые, As - высокослоистые, Sc - слоисто-кучевые, Ns - слоисто-дождевые, Cu - кучевые, Cb - кучево-дождевые. Подробнее классификацию облаков см. в Атласе облаков (PDF).
T - Температура воздуха - температура, измеренная на высоте 2 м над землей.
Td - Температура точки росы - температура, при понижении до которой содержащийся в воздухе водяной пар достигнет насыщения.
f - Относительная влажность воздуха - влажноcть воздуха, измеренная на высоте 2 м над землей.
Te - Эффективная температура - температура, которую ощущает одетый по сезону человек в тени. Характеристика душности погоды. При расчете учитывается влияние влажности воздуха и скорости ветра на теплоощущения человека.
Tes - Эффективная температура на солнце - температура, которую ощущает человек, с поправкой на солнечный нагрев. Характеристика знойности погоды. Зависит от высоты солнца над горизонтом, облачности и скорости ветра. Ночью, в пасмурную погоду, а также при ветре 12 м/с и более поправка равна нулю.
P - Атмосферное давление - приведенное к уровню моря атмосферное давление.
Po - Атмосферное давление - измеренное на уровне метеостанции атмосферное давление.
Tmin - Минимальная температура - минимум температуры воздуха на высоте 2 м над землей.
Tmax - Максимальная температура - максимум температуры воздуха на высоте 2 м над землей.
R - Количество осадков - Количество выпавших осадков за период времени, мм. При наведении курсора мыши на число - период времени, за который выпало указанное количество осадков.
R24 - Количество осадков - Количество выпавших осадков за 24 часа, мм.
S - Снежный покров - Высота снежного покрова, см. При наведении курсора мыши на число - состояние снежного покрова и степень покрытия местности в баллах.